Date Time,Air Temp,Sky Temp,Clarity,Light Level,Rain Sensor,Readings
2021-07-08 00:00:05,21.0,10.8,10.1,0.0,-4.9,111
2021-07-08 00:05:05,20.8,10.8,10.0,0.0,-5.9,112
2021-07-08 00:10:05,20.8,11.0,9.7,0.0,-5.7,112
2021-07-08 00:15:05,20.7,10.6,10.1,0.0,-4.8,111
2021-07-08 00:20:05,20.6,10.8,9.8,0.0,-5.6,111
2021-07-08 00:25:05,20.6,11.0,9.6,0.0,-5.5,112
2021-07-08 00:30:05,20.6,11.1,9.5,0.0,-5.6,111
2021-07-08 00:35:05,20.6,10.9,9.7,0.0,-4.5,111
2021-07-08 00:40:05,20.6,11.2,9.4,0.0,-5.8,111
2021-07-08 00:45:05,20.6,11.0,9.6,0.0,-5.1,112
2021-07-08 00:50:05,20.6,11.4,9.2,0.0,-6.2,111
2021-07-08 00:55:05,20.6,11.4,9.2,0.0,-6.2,111
2021-07-08 01:00:05,20.7,11.7,8.9,0.0,-6.5,112
2021-07-08 01:05:05,20.8,11.7,9.1,0.0,-6.5,111
2021-07-08 01:10:05,20.8,11.7,9.1,0.0,-6.4,111
2021-07-08 01:15:05,20.9,11.7,9.2,0.0,-6.5,112
2021-07-08 01:20:05,20.9,11.6,9.3,0.0,-6.5,112
2021-07-08 01:25:05,20.9,11.7,9.2,0.0,-6.5,111
2021-07-08 01:30:05,20.9,11.7,9.2,0.0,-6.5,111
2021-07-08 01:35:05,20.9,11.7,9.2,0.0,-6.1,112
2021-07-08 01:40:05,20.9,11.8,9.1,0.0,-6.2,111
2021-07-08 01:45:05,20.9,11.7,9.2,0.0,-6.3,111
2021-07-08 01:50:05,20.9,11.7,9.1,0.0,-6.4,112
2021-07-08 01:55:05,20.9,11.6,9.4,0.0,-6.6,111
2021-07-08 02:00:05,21.0,12.0,9.0,0.0,-6.5,111
2021-07-08 02:05:05,21.0,11.8,9.2,0.0,-6.6,112
2021-07-08 02:10:05,21.0,11.9,9.2,0.0,-6.6,111
2021-07-08 02:15:05,21.1,11.9,9.2,0.0,-6.6,112
2021-07-08 02:20:05,21.1,11.6,9.5,0.0,-6.5,111
2021-07-08 02:25:05,21.1,11.7,9.3,0.0,-6.6,111
2021-07-08 02:30:05,21.1,11.4,9.6,0.0,-6.5,112
2021-07-08 02:35:05,21.0,11.5,9.6,0.0,-6.6,111
2021-07-08 02:40:05,21.1,11.5,9.6,0.0,-6.6,111
2021-07-08 02:45:05,21.1,11.3,9.7,0.0,-6.6,112
2021-07-08 02:50:05,21.0,11.2,9.9,0.0,-6.6,111
2021-07-08 02:55:06,21.0,11.3,9.7,0.0,-6.6,112
2021-07-08 03:00:06,21.1,11.6,9.5,0.0,-6.6,111
2021-07-08 03:05:06,21.1,11.4,9.7,0.0,-6.6,111
2021-07-08 03:10:06,21.1,11.7,9.5,0.0,-6.6,112
2021-07-08 03:15:06,21.2,11.6,9.6,0.0,-6.6,111
2021-07-08 03:20:06,21.1,11.8,9.4,0.0,-6.6,111
2021-07-08 03:25:06,21.1,11.3,9.8,0.0,-6.6,112
2021-07-08 03:30:06,21.1,11.1,9.9,0.0,-6.6,111
2021-07-08 03:35:06,21.1,11.0,10.1,0.0,-6.6,112
2021-07-08 03:40:06,21.1,10.3,10.8,0.1,-6.6,111
2021-07-08 03:45:06,21.1,9.5,11.6,0.1,-6.6,112
2021-07-08 03:50:06,21.0,8.8,12.2,0.2,-6.7,111
2021-07-08 03:55:06,21.3,2.0,19.3,0.4,-6.6,112
2021-07-08 04:00:06,23.8,2.7,21.1,0.7,-6.0,112
2021-07-08 04:05:06,22.7,10.4,12.4,1.0,-6.1,111
2021-07-08 04:10:06,21.4,11.4,10.1,1.4,-6.5,112
2021-07-08 04:15:06,21.2,10.7,10.5,2.4,-6.6,111
2021-07-08 04:20:06,21.1,6.7,14.4,4.2,-6.6,112
2021-07-08 04:25:06,21.1,5.0,16.1,7.0,-6.6,112
2021-07-08 04:30:06,21.0,4.0,17.0,10.4,-6.6,112
2021-07-08 04:35:06,21.0,10.4,10.6,13.5,-6.7,111
2021-07-08 04:40:06,21.1,10.8,10.3,16.7,-6.6,111
2021-07-08 04:45:06,21.1,9.6,11.5,21.3,-6.6,111
2021-07-08 04:50:06,21.1,10.1,10.9,23.8,-6.7,112
2021-07-08 04:55:06,21.1,12.0,9.2,24.9,-6.6,111
2021-07-08 05:00:06,21.3,12.1,9.2,26.1,-6.6,111
2021-07-08 05:05:06,21.3,10.8,10.5,28.4,-6.6,112
2021-07-08 05:10:06,21.2,10.4,10.8,29.3,-6.6,111
2021-07-08 05:15:06,21.2,10.7,10.5,29.8,-6.6,112
2021-07-08 05:20:06,21.2,11.6,9.6,29.8,-6.5,111
2021-07-08 05:25:06,21.3,12.1,9.2,29.9,-6.5,111
2021-07-08 05:30:06,21.3,11.8,9.5,30.6,-6.4,112
2021-07-08 05:35:06,21.4,12.1,9.3,31.1,-6.4,111
2021-07-08 05:40:06,21.4,11.7,9.7,30.9,-6.3,111
2021-07-08 05:45:06,21.4,10.5,10.9,31.7,-6.3,112
2021-07-08 05:50:06,21.5,10.1,11.3,32.0,-6.3,112
2021-07-08 05:55:06,21.5,8.0,13.5,32.0,-6.1,111
2021-07-08 06:00:06,21.6,5.8,15.8,32.0,-6.3,112
2021-07-08 06:05:03,21.6,11.4,10.3,32.1,-6.3,41
2021-07-08 06:10:03,21.8,11.4,10.3,32.2,-6.2,112
2021-07-08 06:15:03,22.0,12.0,10.1,32.3,-6.0,111
2021-07-08 06:20:03,22.3,12.9,9.5,32.3,-5.8,112
2021-07-08 06:25:03,22.4,12.4,10.0,32.0,-4.4,111
2021-07-08 06:30:03,22.2,11.6,10.6,31.7,14.6,111
2021-07-08 06:35:03,22.1,17.1,5.0,31.5,23.5,111
2021-07-08 06:40:03,22.1,18.8,3.3,31.1,30.6,112
2021-07-08 06:45:03,22.2,15.6,6.6,31.2,28.5,111
2021-07-08 06:50:03,22.0,15.8,6.3,31.5,21.3,112
2021-07-08 06:55:03,21.7,16.7,5.0,31.9,1.4,111
2021-07-08 07:00:03,21.4,13.5,7.9,32.0,-2.9,111
2021-07-08 07:05:03,21.2,11.6,9.5,32.2,-4.1,112
2021-07-08 07:10:03,21.2,11.3,9.8,32.2,-4.5,111
2021-07-08 07:15:03,21.3,11.0,10.3,32.2,-5.0,112
2021-07-08 07:20:03,21.4,11.5,9.9,32.3,-5.5,111
2021-07-08 07:25:03,21.6,11.4,10.2,32.3,-5.1,111
2021-07-08 07:30:03,21.8,11.5,10.3,32.3,-4.6,111
2021-07-08 07:35:03,21.9,11.5,10.4,32.3,-5.8,112
2021-07-08 07:40:03,22.1,12.2,9.9,32.3,-5.8,111
2021-07-08 07:45:03,22.3,11.0,11.3,32.4,-5.7,112
2021-07-08 07:50:03,22.5,11.9,10.6,32.4,-5.6,111
2021-07-08 07:55:03,22.7,13.4,9.2,32.3,-5.5,111
2021-07-08 08:00:03,22.8,13.2,9.6,32.3,-5.4,111
2021-07-08 08:05:03,22.8,13.7,9.1,32.1,-5.4,112
2021-07-08 08:10:03,22.8,13.7,9.1,32.2,-5.4,111
2021-07-08 08:15:03,22.8,13.3,9.5,32.3,-5.3,111
2021-07-08 08:20:03,22.7,11.2,11.5,32.4,-5.4,111
2021-07-08 08:25:03,22.8,11.9,10.9,32.4,-5.3,112
2021-07-08 08:30:03,23.0,12.0,11.0,32.4,-5.2,111
2021-07-08 08:35:03,23.1,12.0,11.2,32.4,-5.0,111
2021-07-08 08:40:03,23.2,12.1,11.0,32.3,-0.2,112
2021-07-08 08:45:03,22.8,15.6,7.3,32.2,13.9,111
2021-07-08 08:50:03,22.2,16.8,5.4,32.2,-0.7,111
2021-07-08 08:55:03,21.8,12.3,9.6,32.4,-5.4,112
2021-07-08 09:00:03,21.8,10.2,11.5,32.5,-5.6,112
2021-07-08 09:05:03,22.1,10.6,11.5,32.5,-5.7,111
2021-07-08 09:10:03,22.4,10.2,12.2,32.5,-5.5,112
2021-07-08 09:15:03,22.7,10.0,12.7,32.5,-5.3,112
2021-07-08 09:20:03,22.9,9.3,13.5,32.5,-5.1,111
2021-07-08 09:25:03,23.1,8.9,14.2,32.5,-5.0,111
2021-07-08 09:30:03,23.4,10.1,13.2,32.5,-4.7,112
2021-07-08 09:35:03,23.6,8.9,14.6,32.5,-4.6,111
2021-07-08 09:40:03,23.7,8.1,15.6,32.5,-4.5,112
2021-07-08 09:45:03,23.8,8.4,15.4,32.5,-4.4,111
2021-07-08 09:50:03,24.0,7.1,16.9,32.5,-4.3,111
2021-07-08 09:55:03,24.2,9.6,14.6,32.5,-4.2,112
2021-07-08 10:00:03,24.4,12.3,12.1,32.5,-4.1,111
2021-07-08 10:05:03,24.2,11.0,13.2,32.5,-4.1,111
2021-07-08 10:10:03,24.1,11.7,12.4,32.5,-4.2,112
2021-07-08 10:15:03,24.0,12.0,12.1,32.5,-4.2,111
2021-07-08 10:20:03,24.1,10.8,13.2,32.5,-4.3,111
2021-07-08 10:25:03,23.7,10.9,12.8,32.5,-4.2,112
2021-07-08 10:30:03,24.4,10.7,13.7,32.5,-4.0,111
2021-07-08 10:35:03,24.7,11.6,13.1,32.5,-3.9,111
2021-07-08 10:40:03,25.1,12.2,12.9,32.5,-3.8,112
2021-07-08 10:45:03,25.4,12.3,13.0,32.5,-3.6,111
2021-07-08 10:50:03,25.6,12.7,12.9,32.5,-3.5,112
2021-07-08 10:55:03,25.7,12.0,13.6,32.5,-3.5,111
2021-07-08 11:00:03,25.7,11.5,14.2,32.6,-3.5,111
2021-07-08 11:05:03,25.8,11.9,13.9,32.6,-3.4,112
2021-07-08 11:10:03,26.1,12.0,14.1,32.6,-3.3,111
2021-07-08 11:15:03,26.4,11.2,15.2,32.6,-3.7,112
2021-07-08 11:20:03,26.5,11.8,14.7,32.6,-3.8,111
2021-07-08 11:25:03,26.7,12.5,14.2,32.5,-3.8,111
2021-07-08 11:30:03,26.6,12.6,14.0,32.5,-3.8,112
2021-07-08 11:35:03,26.2,9.0,17.1,32.5,-3.8,111
2021-07-08 11:40:03,25.9,9.9,16.0,32.5,-3.3,111
2021-07-08 11:45:03,26.8,13.7,13.0,32.5,-3.8,112
2021-07-08 11:50:03,26.7,11.1,15.6,32.5,-3.9,112
2021-07-08 11:55:03,25.8,10.9,14.9,32.5,-3.6,111
2021-07-08 12:00:03,25.1,11.5,13.6,32.5,-3.5,111
2021-07-08 12:05:03,24.8,11.3,13.4,32.5,-3.7,111
2021-07-08 12:10:03,24.5,11.2,13.3,32.5,-3.8,111
2021-07-08 12:15:03,24.3,11.1,13.2,32.5,-3.9,111
2021-07-08 12:20:03,24.2,11.2,13.0,32.5,-3.9,111
2021-07-08 12:25:03,24.3,11.6,12.7,32.5,-3.9,112
2021-07-08 12:30:03,24.4,11.7,12.7,32.5,-3.9,111
2021-07-08 12:35:03,24.4,11.5,12.9,32.5,-3.9,111
2021-07-08 12:40:03,24.6,11.1,13.5,32.5,-3.8,112
2021-07-08 12:45:03,24.7,11.6,13.1,32.6,-3.8,111
2021-07-08 12:50:03,24.9,11.4,13.5,32.5,-3.8,111
2021-07-08 12:55:03,25.0,11.7,13.3,32.5,-3.7,112
2021-07-08 13:00:03,25.0,11.5,13.5,32.5,-3.7,111
2021-07-08 13:05:03,24.9,11.3,13.6,32.5,-3.6,111
2021-07-08 13:10:03,24.9,11.7,13.2,32.5,-3.7,112
2021-07-08 13:15:03,25.0,11.9,13.1,32.5,-3.6,111
2021-07-08 13:20:03,25.1,11.8,13.3,32.5,-3.6,111
2021-07-08 13:25:03,24.7,12.2,12.6,32.5,-3.6,111
2021-07-08 13:30:03,25.3,11.8,13.4,32.6,-3.5,111
2021-07-08 13:35:03,25.4,12.3,13.1,32.6,-3.5,112
2021-07-08 13:40:03,25.6,12.3,13.3,32.6,-3.4,111
2021-07-08 13:45:03,25.8,12.3,13.5,32.6,-3.4,111
2021-07-08 13:50:03,26.0,12.2,13.8,32.6,-3.7,112
2021-07-08 13:55:03,26.2,12.6,13.6,32.6,-3.9,111
2021-07-08 14:00:03,26.5,12.7,13.7,32.6,-4.0,112
2021-07-08 14:05:03,26.7,13.2,13.4,32.6,-4.1,111
2021-07-08 14:10:03,26.9,12.9,14.0,32.6,-4.1,112
2021-07-08 14:15:03,26.9,13.5,13.5,32.6,-4.1,111
2021-07-08 14:20:03,27.2,13.2,14.0,32.6,-4.2,111
2021-07-08 14:25:03,27.3,12.7,14.7,32.6,-4.3,111
2021-07-08 14:30:03,27.3,13.3,14.0,32.6,-4.3,111
2021-07-08 14:35:03,27.5,13.3,14.2,32.6,-4.3,112
2021-07-08 14:40:03,27.6,13.2,14.5,32.6,-4.3,111
2021-07-08 14:45:03,27.7,13.2,14.5,32.6,-4.3,112
2021-07-08 14:50:03,27.5,12.6,14.9,32.6,-4.3,112
2021-07-08 14:55:03,27.1,12.4,14.7,32.6,-4.3,111
2021-07-08 15:00:03,26.9,12.3,14.6,32.6,-4.3,111
2021-07-08 15:05:03,26.7,12.4,14.4,32.6,-4.3,111
2021-07-08 15:10:03,27.1,14.3,12.7,32.6,-4.3,112
2021-07-08 15:15:03,27.4,13.7,13.7,32.6,-4.3,111
2021-07-08 15:20:03,27.7,13.3,14.3,32.6,-4.3,112
2021-07-08 15:25:03,27.5,11.6,15.9,32.5,-4.3,111
2021-07-08 15:30:04,26.9,11.8,15.1,32.5,-4.3,112
2021-07-08 15:35:04,26.5,11.8,14.7,32.5,-4.3,111
2021-07-08 15:40:04,26.2,11.1,15.1,32.5,-4.3,111
2021-07-08 15:45:04,25.9,11.4,14.4,32.5,-4.3,112
2021-07-08 15:50:04,25.6,11.2,14.4,32.5,-4.3,112
2021-07-08 15:55:04,25.4,11.4,14.0,32.5,-4.3,111
2021-07-08 16:00:04,25.3,11.3,14.0,32.5,-4.2,111
2021-07-08 16:05:04,25.2,11.2,14.0,32.5,-3.9,111
2021-07-08 16:10:04,25.1,11.4,13.7,32.5,-3.7,111
2021-07-08 16:15:04,25.1,11.8,13.3,32.5,-3.7,112
2021-07-08 16:20:04,25.3,12.2,13.1,32.5,-4.0,111
2021-07-08 16:25:04,25.5,11.9,13.6,32.5,-4.3,112
2021-07-08 16:30:04,25.7,12.3,13.3,32.5,-4.3,111
2021-07-08 16:35:04,25.9,11.8,14.0,32.5,-4.3,112
2021-07-08 16:40:04,25.9,11.8,14.0,32.5,-4.3,110
2021-07-08 16:45:04,25.8,11.6,14.2,32.5,-4.3,112
2021-07-08 16:50:04,25.8,11.6,14.2,32.5,-4.3,111
2021-07-08 16:55:04,25.8,11.7,14.1,32.5,-4.3,111
2021-07-08 17:00:04,25.8,11.4,14.4,32.5,-4.3,112
2021-07-08 17:05:04,25.8,11.5,14.3,32.5,-4.3,111
2021-07-08 17:10:04,25.9,9.6,16.3,32.5,-4.3,112
2021-07-08 17:15:04,25.6,8.8,16.8,32.6,-4.3,111
2021-07-08 17:20:04,25.3,8.0,17.3,32.5,-4.3,112
2021-07-08 17:25:04,25.2,6.9,18.3,32.5,-4.3,111
2021-07-08 17:30:04,26.0,5.1,20.8,32.5,-4.4,112
2021-07-08 17:35:04,28.1,3.8,24.3,32.5,-4.5,111
2021-07-08 17:40:04,28.5,3.7,24.8,32.5,-4.6,112
2021-07-08 17:45:04,28.4,3.9,24.5,32.4,-4.7,111
2021-07-08 17:50:04,28.2,4.6,23.6,32.4,-4.7,112
2021-07-08 17:55:04,28.1,6.2,21.9,32.4,-4.7,111
2021-07-08 18:00:04,28.0,6.6,21.4,32.4,-4.7,111
2021-07-08 18:05:04,27.8,7.3,20.4,32.4,-4.7,112
2021-07-08 18:10:04,25.5,8.0,17.5,32.4,-4.4,111
2021-07-08 18:15:04,24.0,8.7,15.3,32.4,-4.2,112
2021-07-08 18:20:04,23.6,9.4,14.1,32.4,-4.3,111
2021-07-08 18:25:04,23.3,9.7,13.7,32.4,-4.4,112
2021-07-08 18:30:04,23.3,10.1,13.2,32.4,-4.5,111
2021-07-08 18:35:04,23.4,10.0,13.4,32.3,-4.5,112
2021-07-08 18:40:04,23.4,9.6,13.8,32.3,-4.5,112
2021-07-08 18:45:04,23.2,9.4,13.8,32.3,-4.6,111
2021-07-08 18:50:04,23.1,9.9,13.3,32.3,-4.7,112
2021-07-08 18:55:04,23.2,9.9,13.3,32.3,-4.7,111
2021-07-08 19:00:04,23.3,9.7,13.5,32.3,-4.7,112
2021-07-08 19:05:04,23.3,9.9,13.4,32.4,-4.7,111
2021-07-08 19:10:04,23.4,10.0,13.4,32.4,-4.7,112
2021-07-08 19:15:04,23.7,10.3,13.4,32.5,-4.5,111
2021-07-08 19:20:04,24.0,9.6,14.4,32.5,-4.3,112
2021-07-08 19:25:04,24.7,6.7,18.0,32.5,-4.4,111
2021-07-08 19:30:04,25.7,5.3,20.3,32.6,-4.8,112
2021-07-08 19:35:04,28.8,3.8,25.0,32.5,-4.9,111
2021-07-08 19:40:04,29.9,5.1,24.9,32.5,-5.0,112
2021-07-08 19:45:04,30.5,6.0,24.5,32.5,-5.1,112
2021-07-08 19:50:04,30.7,3.2,27.6,32.4,-5.2,111
2021-07-08 19:55:04,30.1,1.2,28.9,32.3,-5.2,111
2021-07-08 20:00:04,29.4,1.5,27.9,32.3,-5.2,111
2021-07-08 20:05:04,29.1,1.9,27.2,32.4,-5.1,111
2021-07-08 20:10:04,29.1,2.2,26.9,32.4,-5.2,111
2021-07-08 20:15:04,29.1,1.9,27.2,32.3,-5.2,111
2021-07-08 20:20:04,28.7,2.8,25.9,32.2,-5.2,112
2021-07-08 20:25:04,28.3,3.8,24.5,32.2,-5.2,112
2021-07-08 20:30:04,28.0,4.6,23.4,32.1,-5.2,111
2021-07-08 20:35:04,27.7,4.6,23.0,32.0,-5.2,112
2021-07-08 20:40:04,27.0,5.4,21.7,32.0,-5.2,112
2021-07-08 20:45:04,27.2,5.5,21.7,31.9,-5.2,111
2021-07-08 20:50:04,27.2,4.5,22.7,31.8,-5.2,112
2021-07-08 20:55:04,27.2,4.0,23.2,31.5,-5.2,112
2021-07-08 21:00:04,27.1,4.2,22.9,31.3,-5.2,111
2021-07-08 21:05:04,27.1,4.6,22.5,31.0,-5.2,111
2021-07-08 21:10:04,27.1,5.1,21.9,30.6,-5.2,112
2021-07-08 21:15:04,27.0,5.3,21.7,30.0,-5.2,112
2021-07-08 21:20:04,27.0,5.6,21.3,29.2,-5.2,112
2021-07-08 21:25:04,27.0,5.8,21.2,27.8,-5.2,112
2021-07-08 21:30:04,27.0,6.4,20.6,25.7,-5.2,111
2021-07-08 21:35:04,26.4,6.9,19.5,22.6,-5.1,112
2021-07-08 21:40:04,23.7,7.5,16.2,18.6,-4.8,111
2021-07-08 21:45:04,22.7,7.7,15.0,13.8,-5.1,112
2021-07-08 21:50:04,22.3,8.2,14.1,9.4,-5.3,111
2021-07-08 21:55:04,22.1,8.9,13.2,6.1,-5.4,112
2021-07-08 22:00:04,22.1,9.1,13.0,3.8,-5.5,111
2021-07-08 22:05:04,22.0,9.1,12.9,2.4,-5.5,112
2021-07-08 22:10:04,22.0,9.3,12.8,1.4,-5.6,111
2021-07-08 22:15:04,22.0,9.2,12.8,0.8,-5.6,112
2021-07-08 22:20:04,22.0,8.7,13.3,0.5,-5.6,111
2021-07-08 22:25:04,21.9,8.7,13.2,0.3,-5.7,112
2021-07-08 22:30:04,21.9,8.5,13.3,0.2,-5.7,111
2021-07-08 22:35:04,21.8,8.3,13.5,0.1,-5.8,112
2021-07-08 22:40:04,21.7,8.6,13.2,0.1,-5.9,111
2021-07-08 22:45:04,21.7,8.5,13.1,0.0,-5.9,112
2021-07-08 22:50:04,21.7,8.5,13.2,0.0,-5.9,111
2021-07-08 22:55:04,21.7,9.0,12.7,0.0,-6.0,111
2021-07-08 23:00:04,21.9,8.9,13.0,0.0,-6.0,112
2021-07-08 23:05:04,21.9,7.6,14.3,0.0,-6.0,112
2021-07-08 23:10:04,21.8,5.5,16.3,0.0,-6.0,111
2021-07-08 23:15:04,21.6,3.7,17.9,0.0,-6.0,112
2021-07-08 23:20:04,21.6,2.2,19.4,0.0,-6.1,111
2021-07-08 23:25:04,23.8,1.4,22.4,0.0,-5.7,111
2021-07-08 23:30:04,25.4,0.9,24.5,0.0,-5.3,111
2021-07-08 23:35:04,25.8,0.4,25.5,0.0,-5.2,111
2021-07-08 23:40:04,26.0,0.1,25.9,0.0,-5.3,112
2021-07-08 23:45:04,26.1,0.1,26.0,0.0,-5.4,111
2021-07-08 23:50:04,26.0,-0.0,26.0,0.0,-5.5,112
2021-07-08 23:55:04,25.9,0.0,25.9,0.0,-5.6,111
